[[{"header":{"parameterUnit":"m.s-1","parameterCategory":1,"la1":30.2991,"la2":30.254,"lo1":-89.0895,"lo2":-89.0444,"dy":0.0017,"dx":0.0017,"nx":28,"ny":28,"refTime":"2025-08-29T21:00:00:Z","depth":0,"parameterNumber":2,"parameterNumberName":"U-component_of_WINDS"},"data":[0,0,0,0,0,0,0,0,0,0,0,0,0,0,0,0,0,0,0,0,0,0,0,0,0,0,0,0,0,0,0,0,0,0,0,0,0,0,0,0,0,0,0,0,0,0,0,0,0,0,0,0,0,0,0,0,0,0,-2.1977,-2.1977,0,-2.1965,-2.1964,-2.1964,-2.1899,-2.1898,-2.1896,-2.1895,-2.1885,-2.1886,-2.1887,0,0,0,0,0,0,0,0,0,0,0,0,0,-2.1947,-2.1948,-2.1977,-2.1977,-2.1976,-2.1965,-2.1964,-2.1964,-2.1899,-2.1898,-2.1896,-2.1894,-2.1884,-2.1886,-2.1887,0,0,0,0,0,0,0,0,0,0,0,0,0,-2.195,-2.1948,-2.1977,-2.1943,-2.1939,-2.1965,-2.1964,-2.1964,-2.19,-2.1897,-2.1895,-2.1893,-2.1884,-2.1886,-2.1888,-2.1946,0,0,-2.1893,-2.1894,0,0,0,0,0,0,0,0,-2.195,-2.1951,-2.1948,-2.1945,-2.1941,-2.1931,-2.195,-2.1958,-2.19,-2.1915,-2.1895,-2.1892,-2.1902,-2.1902,-2.1905,-2.1945,-2.1945,-2.1893,-2.1894,-2.1895,-2.1896,0,0,0,0,0,0,0,-2.195,-2.1951,-2.1972,-2.1948,-2.1944,-2.1929,-2.1927,-2.1952,-2.1922,-2.1913,-2.1909,-2.1908,-2.19,-2.1904,-2.1905,-2.1945,-2.1893,-2.1895,-2.1896,-2.1897,-2.2034,-2.2037,0,0,0,0,0,0,-2.1954,-2.1952,-2.1972,-2.1972,-2.194,-2.1931,-2.1929,-2.1937,-2.1922,-2.1917,-2.191,-2.1905,-2.1902,-2.1903,-2.1904,-2.1973,-2.1895,-2.1897,-2.1898,-2.2032,-2.2035,-2.2038,0,0,0,0,0,0,-2.1954,-2.1956,-2.1973,-2.196,-2.1961,-2.1934,-2.1944,-2.1938,-2.1941,-2.1919,-2.1914,-2.1919,-2.19,-2.1902,-2.1936,-2.1972,-2.1898,-2.1899,-2.2029,-2.2033,-2.2036,-2.211,0,0,0,0,0,0,-2.1953,-2.1957,-2.1978,-2.1961,-2.1962,-2.2004,-2.1946,-2.1939,-2.1944,-2.1938,-2.1926,-2.1922,-2.1898,-2.1934,-2.1938,-2.1973,-2.1901,-2.2025,-2.203,-2.2035,-2.2104,-2.2116,-2.2126,0,0,0,0,0,-2.1952,-2.1999,-2.1979,-2.1982,-2.1988,-2.2006,-2.2007,-2.1978,-2.1947,-2.1969,-2.1955,-2.1922,-2.1967,-2.1938,-2.1942,-2.1978,-2.2023,-2.2029,-2.2035,-2.21,-2.2114,-2.2126,0,0,0,0,0,0,-2.2021,-2.1996,-2.1974,-2.2016,-2.2014,-2.1995,-2.2021,-2.1994,-2.2001,-2.1994,-2.1959,-2.1957,-2.1998,-2.1991,-2.1959,-2.2035,-2.199,-2.1996,-2.2038,-2.2051,-2.2061,-2.2063,-2.1902,0,0,0,0,0,-2.204,-2.2057,-2.2035,-2.2075,-2.2074,-2.2049,-2.2055,-2.2034,-2.203,-2.2029,-2.2017,-2.2016,-2.203,-2.204,-2.2051,-2.2103,-2.2101,-2.213,-2.2141,-2.215,-2.2156,-2.2186,-2.2199,-2.2057,-2.2056,-2.2056,0,0,-2.2082,-2.2071,-2.2083,-2.2088,-2.2084,-2.2103,-2.2048,-2.207,-2.2084,-2.2032,-2.2065,-2.2056,-2.2053,-2.2097,-2.2116,-2.2093,-2.2195,-2.2157,-2.2164,-2.2166,-2.2193,-2.2207,-2.2219,-2.206,-2.206,-2.2059,0,0,-2.2168,-2.216,-2.2193,-2.219,-2.2184,-2.2166,-2.2175,-2.2161,-2.2153,-2.2185,-2.2147,-2.2164,-2.2188,-2.2188,-2.2191,-2.2278,-2.225,-2.2283,-2.234,-2.2369,-2.238,-2.239,-2.2423,-2.2436,-2.229,-2.229,-2.229,0,-2.222,-2.2247,-2.2214,-2.2239,-2.2243,-2.2197,-2.2231,-2.223,-2.2229,-2.2233,-2.2207,-2.2238,-2.2232,-2.2276,-2.2298,-2.2301,-2.2311,-2.2285,-2.2381,-2.239,-2.2399,-2.2431,-2.2443,-2.2294,-2.2294,-2.2293,-2.2293,0,-2.2313,-2.2332,-2.2359,-2.2359,-2.2366,-2.2396,-2.2369,-2.2381,-2.2359,-2.2345,-2.2379,-2.2371,-2.2381,-2.2389,-2.2368,-2.2432,-2.2418,-2.2387,-2.2341,-2.2418,-2.2447,-2.2458,-2.23,-2.2299,-2.2297,-2.2296,0,0,-2.2441,-2.2423,-2.2434,-2.2434,-2.2425,-2.2439,-2.2468,-2.2477,-2.2489,-2.2489,-2.2514,-2.2536,-2.2508,-2.2512,-2.249,-2.2515,-2.2588,-2.2481,-2.2481,-2.2503,-2.2661,-2.2685,-2.27,-2.2568,-2.2571,-2.2572,-2.2662,0,-2.2525,-2.2571,-2.2544,-2.2595,-2.2614,-2.2571,-2.2596,-2.2594,-2.2582,-2.2597,-2.2584,-2.2601,-2.2561,-2.2564,-2.2587,-2.2574,-2.262,-2.2567,-2.2593,-2.2594,-2.2597,-2.2714,-2.274,-2.2825,-2.2673,-2.2675,-2.2676,0,-2.2628,-2.2634,-2.2687,-2.2676,-2.2683,-2.2706,-2.2713,-2.2727,-2.2725,-2.2715,-2.272,-2.2692,-2.2721,-2.2675,-2.2716,-2.2682,-2.269,-2.2686,-2.2689,-2.2691,-2.2641,-2.2722,-2.2851,-2.2864,-2.2693,-2.2692,-2.269,0,-2.2719,-2.274,-2.2775,-2.2776,-2.2763,-2.2781,-2.2777,-2.2772,-2.278,-2.2787,-2.2792,-2.2802,-2.2808,-2.2818,-2.2795,-2.2763,-2.284,-2.2791,-2.2834,-2.2835,-2.2853,-2.2853,-2.2987,-2.2856,-2.2856,-2.2856,-2.2856,0,-2.2816,-2.2851,-2.2816,-2.2838,-2.2876,-2.2845,-2.2884,-2.2875,-2.2872,-2.2893,-2.2856,-2.2876,-2.2844,-2.2862,-2.2844,-2.2882,-2.2885,-2.2879,-2.2874,-2.2883,-2.2884,-2.2889,-2.2884,-2.2859,-2.2858,-2.2858,-2.2857,0,-2.2924,-2.2902,-2.2938,-2.2923,-2.292,-2.295,-2.2938,-2.2958,-2.2944,-2.2971,-2.2976,-2.2954,-2.2973,-2.2951,-2.2968,-2.2957,-2.3009,-2.2994,-2.301,-2.3006,-2.3051,-2.3048,-2.3195,-2.3214,-2.3069,-2.3071,-2.3072,0,-2.2988,-2.3014,-2.3003,-2.3014,-2.3012,-2.303,-2.3038,-2.3008,-2.3019,-2.3019,-2.304,-2.3056,-2.3068,-2.3101,-2.3088,-2.3102,-2.3089,-2.3139,-2.3091,-2.31,-2.3092,-2.3092,-2.3095,-2.315,-2.3151,-2.3153,-2.3154,0,-2.3106,-2.3094,-2.3106,-2.3116,-2.3126,-2.3132,-2.3136,-2.3147,-2.3117,-2.3131,-2.315,-2.3159,-2.3177,-2.3195,-2.3205,-2.3202,-2.3175,-2.3169,-2.318,-2.3191,-2.3199,-2.3197,-2.3039,-2.3166,-2.3165,-2.3164,-2.3164,-2.3163,-2.3195,-2.3217,-2.3213,-2.3229,-2.3228,-2.3233,-2.3252,-2.324,-2.3256,-2.3268,-2.325,-2.3274,-2.3274,-2.3284,-2.3285,-2.3305,-2.3284,-2.3299,-2.3303,-2.3308,-2.3316,-2.3195,-2.3307,-2.3306,-2.3306,-2.3306,-2.3305,0,-2.3312,-2.3307,-2.3322,-2.3328,-2.3342,-2.3313,-2.3316,-2.3329,-2.3351,-2.3352,-2.3364,-2.3388,-2.3405,-2.3394,-2.3409,-2.3427,-2.3415,-2.3432,-2.3431,-2.3432,-2.3333,-2.3323,-2.3442,-2.3442,-2.3442,-2.3442,-2.3442,-2.3442,-2.3374,-2.3411,-2.3399,-2.3435,-2.343,-2.3454,-2.3458,-2.3463,-2.3464,-2.3491,-2.3505,-2.3497,-2.3494,-2.3509,-2.3524,-2.3521,-2.3529,-2.3551,-2.3544,-2.3452,-2.3438,-2.3426,-2.3416,-2.3553,-2.3553,-2.3641,-2.3642,-2.3642]},{"header":{"parameterUnit":"m.s-1","parameterCategory":1,"la1":30.2991,"la2":30.254,"lo1":-89.0895,"lo2":-89.0444,"dy":0.0017,"dx":0.0017,"nx":28,"ny":28,"refTime":"2025-08-29T21:00:00:Z","depth":0,"parameterNumber":3,"parameterNumberName":"V-component_of_WINDS"},"data":[0,0,0,0,0,0,0,0,0,0,0,0,0,0,0,0,0,0,0,0,0,0,0,0,0,0,0,0,0,0,0,0,0,0,0,0,0,0,0,0,0,0,0,0,0,0,0,0,0,0,0,0,0,0,0,0,0,0,1.0327,1.0327,0,1.0276,1.0275,1.0275,1.0211,1.021,1.0208,1.0208,1.0155,1.0154,1.0154,0,0,0,0,0,0,0,0,0,0,0,0,0,1.0369,1.0368,1.0327,1.0327,1.0326,1.0276,1.0275,1.0275,1.0211,1.0209,1.0208,1.0207,1.0155,1.0155,1.0154,0,0,0,0,0,0,0,0,0,0,0,0,0,1.0337,1.0368,1.0327,1.0288,1.0284,1.0276,1.0275,1.0274,1.0211,1.0209,1.0208,1.0206,1.0155,1.0155,1.0154,1.0181,0,0,1.0152,1.0152,0,0,0,0,0,0,0,0,1.0339,1.0336,1.0294,1.0291,1.0286,1.0248,1.0271,1.0243,1.0211,1.0239,1.0207,1.0206,1.0187,1.0184,1.0177,1.0178,1.0176,1.0152,1.0151,1.0151,1.0151,0,0,0,0,0,0,0,1.0342,1.0338,1.0307,1.0294,1.0289,1.0273,1.0266,1.0265,1.0222,1.0236,1.0231,1.0226,1.0185,1.0178,1.0176,1.0175,1.0152,1.0151,1.0151,1.0151,1.0191,1.0193,0,0,0,0,0,0,1.035,1.034,1.0309,1.0305,1.031,1.0273,1.0266,1.0262,1.0222,1.0214,1.0228,1.0223,1.018,1.0177,1.0174,1.0199,1.0151,1.015,1.015,1.019,1.0191,1.0193,0,0,0,0,0,0,1.0351,1.0347,1.0311,1.0321,1.0315,1.0274,1.027,1.0262,1.0255,1.0215,1.0207,1.0229,1.0179,1.0175,1.0178,1.0196,1.015,1.015,1.0188,1.019,1.0192,1.0252,0,0,0,0,0,0,1.0352,1.0348,1.0358,1.0322,1.0315,1.0317,1.0271,1.0262,1.0254,1.0248,1.0215,1.0208,1.0177,1.018,1.0178,1.0194,1.0149,1.0186,1.0189,1.0192,1.0248,1.0256,1.0262,0,0,0,0,0,1.0354,1.0378,1.0359,1.0356,1.0327,1.0318,1.0314,1.0278,1.0256,1.0265,1.0239,1.0209,1.0196,1.0181,1.0178,1.0195,1.0185,1.0188,1.0191,1.0245,1.0254,1.0262,0,0,0,0,0,0,1.0417,1.0372,1.0351,1.0364,1.0345,1.0307,1.0317,1.029,1.0277,1.0272,1.0229,1.0222,1.023,1.0214,1.0198,1.0217,1.0185,1.0188,1.0227,1.0236,1.0243,1.0245,1.0148,0,0,0,0,0,1.0433,1.043,1.0391,1.0406,1.0397,1.0359,1.0354,1.0329,1.0307,1.0299,1.0274,1.0254,1.0245,1.024,1.023,1.0246,1.0236,1.0256,1.0264,1.027,1.0272,1.0276,1.0283,1.0204,1.0204,1.0204,0,0,1.0464,1.044,1.044,1.0418,1.04,1.0396,1.0353,1.0352,1.0348,1.0299,1.0299,1.0281,1.0256,1.0265,1.0268,1.0251,1.0292,1.0274,1.0279,1.0278,1.028,1.0287,1.0294,1.0206,1.0206,1.0205,0,0,1.0519,1.0502,1.051,1.0494,1.0468,1.0442,1.0445,1.0411,1.0395,1.0396,1.0358,1.0353,1.034,1.0322,1.0312,1.036,1.033,1.0359,1.0395,1.0399,1.0405,1.0411,1.0424,1.043,1.0361,1.0361,1.0362,0,1.0562,1.0555,1.0519,1.0519,1.0509,1.0465,1.0472,1.0458,1.043,1.0424,1.0406,1.0386,1.0366,1.0369,1.0381,1.0375,1.0374,1.036,1.0408,1.0412,1.0417,1.0429,1.0435,1.0365,1.0364,1.0364,1.0364,0,1.0607,1.0603,1.0614,1.0586,1.0578,1.0583,1.0546,1.0542,1.0518,1.0494,1.0493,1.0469,1.0451,1.0451,1.0427,1.045,1.044,1.0416,1.0382,1.0428,1.0439,1.0444,1.0369,1.0368,1.0367,1.0366,0,0,1.0698,1.0651,1.0655,1.0641,1.0609,1.0605,1.0607,1.0589,1.0585,1.0568,1.0567,1.0556,1.0533,1.0521,1.0495,1.05,1.0535,1.0474,1.0473,1.0483,1.0554,1.057,1.0576,1.0516,1.0517,1.0518,1.0555,0,1.0744,1.0744,1.071,1.0719,1.0714,1.0671,1.0673,1.0653,1.0631,1.0622,1.0598,1.059,1.0562,1.0554,1.0557,1.053,1.0548,1.0528,1.0512,1.0512,1.0516,1.0582,1.0599,1.0635,1.0559,1.056,1.0561,0,1.0797,1.0781,1.0789,1.0755,1.0751,1.0753,1.0733,1.0727,1.0703,1.0687,1.0673,1.0644,1.0642,1.0613,1.0609,1.0595,1.0588,1.0574,1.0574,1.0568,1.0537,1.0575,1.0646,1.0651,1.0568,1.0567,1.0567,0,1.0857,1.0839,1.0841,1.0831,1.0792,1.0794,1.0778,1.0752,1.0743,1.0727,1.072,1.0704,1.0694,1.0681,1.0648,1.0631,1.0646,1.0615,1.063,1.063,1.0632,1.0631,1.0699,1.0633,1.0633,1.0633,1.0633,0,1.091,1.0915,1.0867,1.0867,1.0872,1.0835,1.084,1.082,1.0798,1.0792,1.0756,1.0752,1.071,1.0701,1.0675,1.0673,1.067,1.0655,1.0647,1.0656,1.0657,1.0648,1.0643,1.0634,1.0634,1.0634,1.0634,0,1.0976,1.0945,1.0943,1.0907,1.0898,1.0902,1.087,1.0869,1.0845,1.0839,1.0836,1.0798,1.0785,1.0751,1.073,1.0713,1.0717,1.0705,1.0724,1.0719,1.0734,1.0732,1.0795,1.08,1.0734,1.0735,1.0736,0,1.101,1.1013,1.0977,1.0971,1.0956,1.0948,1.0938,1.0902,1.0893,1.0865,1.0867,1.0851,1.0836,1.0818,1.0788,1.0771,1.0756,1.0779,1.0753,1.0761,1.0752,1.0751,1.0749,1.0784,1.0785,1.0786,1.0786,0,1.1071,1.1055,1.1043,1.1026,1.1015,1.1,1.0982,1.0979,1.0938,1.093,1.0916,1.0905,1.0883,1.0867,1.0845,1.0827,1.0799,1.0795,1.0797,1.0804,1.0814,1.0805,1.0736,1.0793,1.0793,1.0792,1.0792,1.0791,1.112,1.1119,1.1093,1.1081,1.1064,1.1048,1.1044,1.1019,1.1008,1.0986,1.0966,1.0954,1.0929,1.0896,1.0881,1.087,1.0855,1.0859,1.0859,1.086,1.0862,1.0819,1.0866,1.0866,1.0866,1.0866,1.0865,0,1.1176,1.1157,1.1146,1.1122,1.1112,1.1088,1.1067,1.1059,1.1049,1.1028,1.1015,1.0998,1.0982,1.0951,1.0932,1.0929,1.0916,1.0925,1.0923,1.0919,1.0878,1.0877,1.0936,1.0936,1.0936,1.0936,1.0936,1.0936,1.1204,1.1201,1.1182,1.1171,1.1152,1.114,1.1129,1.1114,1.1097,1.108,1.1066,1.1047,1.1021,1.1,1.0984,1.0975,1.0968,1.0981,1.0968,1.0929,1.0922,1.0916,1.0914,1.0981,1.0981,1.1009,1.101,1.101]}]]